Dewpoint
16 17 17 17 17 17 17 16 15 13 13 13 13 12 10 9 10 9 9 8 9 10 10 8 8 7 8 8 11 19 18 20 23 21 23 24 26 28 28 28 29 28 29 30 30 31 32 34 34 35 41 40 40 39 38 37 37 37 36 35 32 26 26 26 26 25 23 23 23 23 23 25 30 27 22 23 28 31 33 35 34 34 34 34 34
14 13 14 16 17 17 17 16 21 13 13 13 13 13 12 11 9 9 11 9 9 11 12 10 9 9 10 9 11 17 15 18 19 17 22 23 24 25 26 27 28 27 27 28 28 29 29 30 31 32 34 38 40 40 38 37 35 35 35 34 33 28 25 26 26 23 21 21 20 20 21 22 26 23 21 20 24 25 29 32 34 34 34 33 33
13 13 14 15 17 17 16 15 14 15 14 13 13 13 13 13 11 10 12 12 10 12 14 10 10 10 10 10 10 15 16 17 20 19 19 20 23 23 25 25 26 26 25 26 27 26 27 27 29 30 32 33 37 39 38 37 37 36 35 34 33 32 29 28 25 23 19 22 21 19 17 18 22 20 21 21 21 22 26 29 32 33 34 33 33
14 14 14 15 16 16 17 16 15 15 14 12 13 13 13 16 12 10 11 13 12 13 18 13 13 14 11 12 11 12 12 17 13 19 15 16 17 22 23 24 24 24 24 25 26 26 25 26 27 28 29 30 32 34 38 38 38 37 37 36 34 31 31 30 26 24 23 19 16 16 17 17 15 17 18 21 22 20 24 26 28 31 32 32 32
15 16 16 16 16 17 17 17 16 14 13 12 14 13 13 14 14 12 11 13 14 16 12 14 14 9 10 10 12 12 10 10 10 12 15 16 15 18 21 23 22 23 23 23 25 25 25 25 26 26 27 29 29 30 30 33 36 38 37 36 35 34 31 31 31 27 24 22 20 16 19 15 17 14 18 18 19 18 19 24 28 29 30 30 31
17 17 17 17 17 17 17 17 16 15 13 13 14 14 13 13 14 14 12 12 14 14 14 16 12 9 9 10 8 9 9 9 10 12 14 15 15 18 20 21 21 22 22 22 24 24 24 25 25 25 26 27 28 28 29 30 31 32 36 36 35 36 33 32 32 32 25 23 23 20 21 20 17 14 16 14 21 21 20 22 25 26 26 29 30
18 18 18 17 17 17 16 15 16 15 15 15 15 14 12 12 13 14 13 13 15 14 14 16 12 10 9 9 12 8 8 9 9 12 13 14 16 17 17 21 22 20 21 21 23 23 24 24 24 25 25 26 26 26 27 27 28 30 32 34 36 36 33 32 32 33 30 25 25 23 24 23 18 16 15 14 13 16 16 17 19 23 25 26 30
17 17 17 17 17 16 16 16 15 15 17 16 15 13 11 11 12 14 15 15 14 15 15 14 15 13 10 10 15 11 9 8 9 10 12 15 14 16 17 18 20 21 20 20 21 21 23 23 24 24 25 26 26 25 26 26 27 28 30 31 33 34 33 32 32 33 31 29 28 23 23 22 20 16 16 13 16 13 14 16 15 19 23 24 27
17 17 17 17 17 16 17 16 16 17 17 16 14 12 10 10 12 14 14 14 12 13 18 14 17 16 12 11 8 11 14 14 14 14 12 12 8 10 14 16 18 18 20 20 20 21 22 21 23 23 24 24 26 24 25 25 26 26 27 28 29 31 33 33 32 32 32 33 32 25 22 20 16 17 15 13 15 12 12 15 16 16 18 21 23
18 18 18 18 17 17 17 17 17 16 16 17 12 8 7 9 12 13 12 13 13 12 13 12 12 17 12 9 9 8 11 10 10 8 7 9 7 8 9 11 15 16 18 20 19 20 21 21 21 21 23 23 24 23 25 25 25 25 26 27 28 28 31 32 32 32 33 33 31 29 26 24 21 22 17 14 12 13 12 14 15 15 16 18 21
18 18 18 18 18 18 17 17 16 15 13 11 9 6 7 11 11 11 10 12 13 12 12 11 11 11 10 9 8 7 7 8 6 5 6 7 6 7 8 9 10 10 17 17 18 19 20 21 20 21 22 22 23 23 23 23 23 24 25 26 26 26 28 29 31 32 33 33 32 32 29 27 25 24 21 16 14 11 10 11 14 15 16 16 18
18 18 18 18 17 17 17 16 15 13 10 8 7 8 11 11 11 10 10 11 12 12 11 10 10 11 10 10 8 7 7 7 6 5 5 6 6 7 8 9 8 8 10 9 12 15 19 19 20 20 21 22 22 21 22 21 22 22 22 23 24 25 27 28 28 29 32 32 32 33 32 32 31 29 28 25 20 15 14 11 13 15 15 15 17
18 18 18 17 17 17 16 15 14 10 6 7 8 9 10 10 9 9 9 10 11 11 9 9 9 9 8 8 7 9 9 8 6 5 5 5 5 6 7 7 8 9 9 9 11 11 12 13 18 18 20 21 21 21 21 21 20 20 21 22 22 23 24 25 27 27 29 31 32 33 33 32 31 32 30 26 24 21 19 15 13 15 14 14 16
17 17 17 17 17 17 16 14 12 8 6 7 8 11 8 8 8 9 8 9 10 9 8 8 8 8 7 7 6 6 5 6 5 5 5 5 6 6 6 7 7 6 7 7 12 12 12 11 12 14 18 20 21 21 20 20 20 19 20 19 20 21 23 23 24 25 27 28 32 33 33 33 32 31 27 26 24 24 21 20 15 14 13 13 14
17 17 17 17 17 16 14 13 10 6 6 7 8 7 8 7 7 7 7 7 7 7 7 6 7 6 5 6 5 5 6 6 6 8 8 7 7 6 6 7 7 7 7 7 12 10 9 8 11 12 14 16 18 19 20 19 19 19 18 19 19 20 21 20 21 23 24 25 26 30 33 33 33 33 32 28 26 24 25 24 20 18 14 12 13
15 14 15 15 15 14 12 10 7 4 4 7 7 8 7 6 7 7 7 7 6 7 6 6 5 5 5 4 4 7 7 6 6 7 6 6 6 7 6 7 7 7 7 7 7 7 7 8 9 11 14 15 13 16 17 17 18 17 17 18 17 19 19 18 18 19 21 23 24 27 29 32 33 33 33 32 31 28 26 25 23 21 20 16 12
12 13 13 14 13 12 10 8 5 4 4 5 7 7 6 5 4 4 6 6 5 6 4 4 4 4 4 4 4 5 5 5 6 6 7 7 7 7 7 7 7 7 7 7 6 7 7 8 9 10 11 12 10 11 12 14 16 16 17 15 16 17 17 17 18 17 18 20 24 24 26 27 32 33 33 33 33 32 30 28 26 24 24 21 19
11 12 13 13 12 11 9 8 4 3 3 5 6 6 5 3 3 3 5 5 5 5 4 5 4 4 4 4 5 5 6 6 6 7 8 7 6 7 7 7 7 7 7 7 8 8 8 10 9 9 11 11 10 9 8 9 9 12 15 15 16 16 16 16 17 17 17 18 19 21 23 25 27 32 33 33 33 33 32 30 29 28 27 26 25
11 11 10 8 7 6 6 4 3 2 4 5 5 4 2 1 2 5 5 5 5 5 5 5 4 4 4 5 5 5 6 7 7 8 7 6 7 8 8 8 8 9 9 8 8 8 8 9 9 9 10 10 9 8 8 7 8 12 12 12 14 15 15 15 15 15 16 17 18 18 20 23 25 27 31 33 33 33 32 32 31 30 28 28 27
10 10 7 5 6 5 4 2 1 1 2 3 3 2 1 1 2 3 4 3 4 5 5 4 4 4 5 5 5 6 7 7 6 5 5 6 7 8 8 8 9 10 8 9 8 8 8 8 9 10 10 11 10 10 8 7 8 9 11 13 11 11 13 14 14 13 15 15 16 17 17 18 21 24 26 29 33 33 33 32 32 31 30 29 28
9 7 5 4 3 3 2 2 0 1 4 5 2 1 1 2 2 3 2 2 4 5 4 4 4 4 5 5 5 6 6 5 5 5 5 6 7 9 8 8 9 8 8 8 8 8 8 8 9 10 11 11 11 9 8 7 7 9 9 9 9 10 13 13 14 14 12 13 15 15 16 16 18 21 23 25 29 33 33 33 32 31 30 30 29
7 6 4 2 1 0 0 -0 0 1 1 0 1 1 2 2 2 2 2 3 5 5 4 4 4 4 4 4 4 5 4 5 4 4 5 5 6 8 8 8 7 7 7 7 8 8 8 8 9 9 9 9 9 8 8 7 7 7 8 8 10 11 13 12 13 14 14 14 14 14 14 14 16 19 22 23 25 28 32 32 32 32 30 30 30
5 4 2 0 -0 -0 -0 0 0 1 0 0 1 1 2 2 2 2 3 5 6 5 4 4 3 3 3 3 4 3 4 4 4 4 4 5 8 8 8 7 7 6 7 7 8 8 8 8 7 7 8 8 8 8 8 7 7 7 6 6 7 9 10 11 12 12 13 14 14 14 14 14 15 18 19 21 23 24 28 32 32 32 31 31 30
4 1 -0 -1 -1 -1 -0 -0 -1 -1 -0 0 1 2 2 1 1 3 5 6 5 5 4 3 2 1 1 2 3 4 4 4 4 4 5 8 8 7 7 6 5 5 6 7 7 7 6 5 4 4 5 5 6 7 8 8 7 7 6 7 6 7 10 11 11 12 12 12 13 13 13 14 15 16 17 18 20 23 24 28 32 32 32 31 31
-1 -1 -1 -1 -1 -0 -0 -0 -1 -1 -0 1 2 2 1 1 3 5 6 5 5 3 2 1 1 1 3 3 4 4 4 4 4 5 7 7 6 5 5 4 5 5 6 5 4 3 1 1 2 3 5 5 6 6 7 7 7 7 7 7 6 7 9 10 11 11 12 12 12 12 13 14 15 15 15 17 19 21 23 24 27 32 32 31 31
-1 -1 -1 -0 0 0 0 -0 -0 0 1 2 2 1 1 3 5 6 6 4 2 1 1 1 2 3 4 4 5 4 3 3 4 5 5 5 5 5 5 5 5 5 3 2 1 1 2 3 5 6 6 6 6 6 7 7 7 7 7 7 8 7 8 9 10 10 11 11 11 12 12 13 14 14 14 16 17 18 20 23 24 27 32 32 31
-1 1 1 0 0 0 0 -0 1 1 2 3 2 1 2 5 6 5 3 1 1 1 2 3 4 4 5 4 3 2 2 2 3 4 5 5 5 4 4 5 4 2 1 1 2 3 5 6 6 6 6 7 7 8 8 7 7 6 7 7 7 7 7 8 8 8 9 10 11 11 12 13 13 14 15 16 16 17 18 21 23 25 29 32 32
1 0 0 0 1 1 1 1 2 3 4 3 1 2 4 5 3 1 0 0 1 2 3 4 4 4 3 2 1 1 1 2 4 4 5 4 4 4 4 3 2 1 2 3 4 5 5 6 6 6 7 7 8 8 8 7 6 6 7 7 8 8 8 8 8 8 8 8 9 10 11 12 13 14 15 16 17 16 16 17 20 23 25 29 31
0 0 1 1 1 1 2 3 4 4 3 2 1 3 4 2 1 -0 0 1 3 4 4 4 3 1 0 -0 0 1 2 3 4 4 4 3 3 2 1 1 2 4 5 5 4 4 4 5 5 6 7 8 7 7 6 6 5 6 8 8 8 8 8 7 7 7 7 8 9 10 11 11 13 13 13 14 16 19 19 19 20 21 22 23 27
0 0 1 1 1 2 3 4 4 4 2 1 2 3 2 0 -0 -0 0 2 4 4 3 2 0 -0 -0 -0 1 2 3 3 3 2 1 0 0 0 2 4 5 5 3 3 3 4 4 5 5 6 7 6 6 6 8 10 11 11 10 9 9 9 8 7 6 6 7 8 9 10 11 12 13 14 14 15 15 16 16 16 16 17 22 24 24
0 1 1 2 2 3 4 5 4 2 1 1 2 2 1 -0 -0 0 1 3 4 2 1 -0 -0 -0 -0 1 1 2 3 2 -1 -2 -1 -1 0 2 5 5 3 1 1 2 3 3 4 5 5 5 4 4 4 6 8 14 15 15 12 11 11 12 12 10 10 10 10 10 10 10 10 12 13 13 14 14 14 15 17 18 19 20 21 22 23
1 1 2 2 4 5 5 4 2 2 1 1 1 1 0 -0 -0 1 2 3 1 0 -0 -0 0 0 0 1 2 2 -0 -2 -2 -2 -1 -0 2 5 4 1 -0 -0 0 1 1 1 1 1 2 2 2 3 3 6 12 14 15 16 14 11 11 11 11 11 11 12 12 11 11 10 10 10 11 12 13 13 15 16 17 18 18 20 21 23 24
1 2 2 4 5 6 4 3 2 2 1 2 2 1 0 0 0 1 3 1 0 -0 -0 -1 -1 -1 -1 2 1 -2 -3 -3 -2 -1 0 2 5 3 -0 -2 -2 -2 -1 -1 -1 -0 -0 0 0 0 1 1 2 6 11 13 14 15 16 14 11 11 11 11 12 12 12 13 12 11 10 10 10 12 13 13 13 14 16 18 19 20 21 21 22
2 3 3 5 6 5 4 3 2 2 2 2 3 1 1 1 2 3 1 0 -0 -0 -1 -1 -1 -0 1 -0 -2 -3 -3 -2 -1 0 3 3 -0 -2 -3 -2 -2 -2 -2 -2 -2 -1 -1 -1 -1 0 1 2 2 4 11 13 14 15 16 15 11 12 12 12 12 12 12 11 11 9 9 9 9 10 10 12 14 17 17 18 19 20 20 21 23
3 4 5 6 5 4 2 1 1 2 3 2 1 1 1 2 3 2 1 -1 -2 -2 -2 -2 -1 0 -1 -2 -3 -3 -3 -2 -1 1 3 -1 -3 -3 -3 -3 -3 -2 -2 -2 -1 -1 -1 1 2 3 3 3 2 8 12 13 14 15 15 14 11 11 11 11 12 12 12 12 12 12 11 10 10 11 11 12 13 14 17 19 20 19 19 19 20
3 5 5 4 3 2 1 1 3 3 3 2 1 1 2 2 2 1 -1 -3 -2 -2 -2 -2 -1 -1 -2 -3 -3 -3 -3 -1 0 2 0 -2 -3 -4 -4 -3 -3 -2 -1 -1 -0 1 1 2 1 1 1 1 1 10 11 12 13 14 14 10 10 10 10 10 10 10 9 9 9 10 10 11 12 12 13 13 13 14 14 13 14 15 16 18 20
4 4 4 3 2 1 1 3 3 3 2 0 0 2 2 2 -0 -2 -3 -3 -2 -3 -3 -2 -2 -2 -2 -3 -3 -3 -3 -1 1 1 -2 -3 -4 -4 -4 -3 -4 -3 -2 -1 -1 -0 0 0 0 0 0 0 0 6 11 12 12 14 12 8 9 9 8 7 8 9 10 11 11 12 11 11 11 12 13 17 18 16 14 14 14 14 14 15 15
4 3 2 1 1 2 3 3 3 2 1 0 1 1 1 0 -1 -2 -2 -3 -3 -3 -3 -3 -2 -2 -3 -4 -3 -3 -2 -1 1 -1 -3 -4 -4 -4 -4 -3 -3 -3 -3 -2 -1 -1 -0 -0 -1 -0 0 -0 -1 1 10 11 12 13 11 8 9 9 9 9 9 9 8 8 8 9 9 10 11 11 13 16 17 16 17 17 17 17 16 16 16
4 3 2 2 2 3 3 3 2 1 1 1 -0 -0 -1 -1 -1 -2 -3 -4 -4 -4 -4 -3 -3 -3 -4 -4 -3 -2 -1 0 -2 -4 -6 -6 -6 -5 -4 -4 -3 -3 -2 -2 -2 -2 -1 -0 -0 -1 0 -1 -1 0 6 11 12 13 10 9 9 9 9 9 9 9 9 9 9 10 10 11 10 10 15 16 17 15 15 16 17 16 15 16 18
3 2 3 3 4 3 2 1 1 2 1 0 -1 -1 -1 -1 -1 -3 -4 -5 -5 -4 -3 -3 -3 -3 -3 -3 -3 -1 0 -3 -5 -6 -6 -6 -6 -6 -6 -6 -5 -4 -4 -4 -3 -2 -1 -2 -3 -3 -3 -2 -2 -1 1 11 11 12 13 8 8 8 8 8 9 9 9 9 9 9 10 11 15 16 17 17 17 16 13 13 14 14 14 15 17
3 3 7 3 1 2 2 2 2 2 1 -0 -0 -1 -2 -2 -3 -4 -6 -5 -5 -4 -3 -3 -3 -3 -4 -4 -2 -1 -4 -6 -8 -7 -7 -7 -7 -7 -7 -8 -7 -6 -5 -4 -3 -3 -4 -5 -4 -3 -3 -3 -2 -1 1 9 10 11 12 10 6 7 8 8 7 8 9 9 10 11 11 12 14 15 16 16 17 16 15 14 13 12 14 16 18
5 5 4 1 1 1 2 2 1 1 0 -0 -1 -2 -2 -4 -5 -6 -6 -5 -5 -4 -4 -4 -4 -4 -4 -4 -2 -3 -6 -7 -8 -8 -9 -10 -9 -9 -8 -8 -6 -5 -5 -5 -6 -5 -6 -5 -4 -4 -4 -3 -1 1 -1 3 9 11 12 12 7 7 9 8 8 8 8 9 10 9 9 10 11 14 16 16 16 16 16 12 13 18 18 18 17
2 0 0 1 0 1 1 1 0 -0 -0 -0 -2 -3 -4 -5 -7 -6 -6 -6 -5 -5 -5 -5 -5 -5 -5 -4 -4 -6 -7 -9 -8 -9 -10 -11 -10 -10 -10 -8 -8 -8 -8 -8 -8 -8 -7 -7 -6 -5 -4 -4 -4 -2 0 1 4 10 11 12 12 10 13 9 8 8 8 8 7 7 8 10 12 15 15 16 18 17 15 15 18 18 20 18 18
1 -0 -0 0 1 1 0 -0 -1 -1 -2 -1 -3 -4 -6 -6 -6 -6 -6 -6 -6 -6 -6 -6 -5 -5 -4 -5 -9 -10 -12 -12 -11 -10 -11 -11 -11 -10 -9 -9 -9 -8 -8 -7 -8 -8 -8 -8 -8 -6 -5 -4 -4 -3 0 1 2 6 11 13 13 12 11 9 9 8 9 9 6 5 7 12 15 16 17 17 16 15 15 18 19 18 18 19 17
-0 -1 1 0 0 -0 -1 -2 -2 -3 -3 -4 -4 -6 -7 -7 -7 -8 -7 -7 -6 -5 -6 -6 -7 -8 -9 -10 -12 -14 -14 -14 -13 -13 -12 -11 -11 -11 -10 -9 -8 -8 -9 -9 -9 -8 -8 -8 -7 -7 -6 -5 -4 -3 -3 -0 2 3 9 11 12 12 10 10 8 7 8 7 9 13 13 14 15 16 17 16 15 15 17 17 17 18 18 16 16
0 -0 -0 -0 -1 -2 -3 -4 -5 -6 -5 -5 -5 -7 -8 -8 -8 -8 -8 -8 -7 -7 -7 -7 -9 -11 -11 -12 -14 -14 -15 -15 -14 -14 -12 -12 -11 -10 -10 -10 -9 -9 -10 -10 -9 -8 -8 -8 -7 -7 -6 -5 -4 -4 -3 -2 2 4 4 7 10 8 9 9 9 8 9 11 13 12 12 10 10 11 12 13 14 13 14 16 18 18 17 17 17
-0 -0 -1 -2 -4 -4 -4 -6 -6 -7 -8 -7 -8 -8 -9 -9 -9 -8 -8 -8 -8 -7 -7 -8 -11 -12 -12 -14 -15 -14 -14 -14 -16 -15 -14 -13 -11 -12 -12 -11 -10 -10 -10 -9 -10 -9 -9 -8 -6 -6 -6 -5 -5 -4 -2 -2 -0 0 1 3 5 6 7 7 7 6 8 7 8 9 9 10 11 11 12 13 14 14 14 15 16 18 18 18 18
1 1 -1 -4 -4 -5 -6 -7 -7 -7 -8 -8 -9 -9 -9 -10 -10 -9 -9 -10 -9 -8 -8 -9 -12 -12 -12 -14 -15 -10 -11 -14 -15 -16 -16 -15 -14 -13 -12 -11 -10 -10 -12 -12 -11 -9 -7 -6 -6 -6 -6 -5 -2 -2 -2 -2 -1 0 1 2 3 5 4 4 5 5 6 7 7 9 10 9 9 9 9 9 10 11 12 13 14 16 17 18 19
0 -1 -3 -4 -5 -6 -7 -7 -7 -8 -8 -9 -10 -10 -10 -10 -9 -10 -11 -12 -10 -8 -8 -10 -12 -14 -15 -13 -14 -15 -15 -15 -17 -18 -17 -16 -15 -14 -13 -12 -12 -10 -10 -8 -7 -6 -6 -6 -5 -5 -3 -2 -3 -3 -3 0 1 3 2 1 3 3 3 3 5 6 6 7 8 8 7 6 6 7 8 7 8 9 10 12 13 15 15 16 17
-1 -2 -4 -6 -7 -7 -8 -8 -8 -8 -9 -9 -10 -10 -11 -10 -11 -11 -12 -12 -10 -10 -12 -13 -14 -15 -16 -16 -16 -17 -19 -16 -18 -19 -17 -17 -12 -11 -11 -12 -12 -8 -7 -5 -4 -6 -5 -3 -2 -1 -1 -4 -4 -3 1 3 4 5 3 3 3 3 4 4 5 6 7 6 6 5 5 4 4 5 6 6 6 7 8 9 11 14 14 14 15
-4 -6 -8 -8 -8 -8 -9 -8 -9 -9 -9 -10 -10 -11 -12 -11 -10 -12 -13 -13 -13 -12 -12 -13 -14 -16 -14 -14 -16 -18 -19 -20 -21 -21 -21 -18 -17 -15 -10 -9 -9 -9 -8 -5 -2 -0 0 -1 -3 -5 -4 -4 -3 -1 2 3 4 6 2 0 2 4 4 4 5 5 4 4 4 4 3 3 3 4 5 5 6 7 8 9 9 10 11 12 14